Wind_Speed
3 1 1 2 8 12 13 11 10 10 17 24 26 23 22 30 34 33 37 43 46 46 48 50 46 39 37 39 40 41 39 38 40 41 41 37 34 32 29 27 25 24 23 22
7 7 5 8 7 1 5 10 12 15 20 24 27 30 28 30 38 38 38 39 42 45 47 46 37 33 33 36 39 41 41 40 41 41 39 36 35 32 29 26 25 24 22 21
6 9 11 9 6 6 7 11 15 17 20 23 24 23 19 18 26 32 32 36 38 35 39 36 33 32 36 38 39 42 43 43 42 40 39 38 37 35 32 29 27 25 24 22
4 8 13 10 8 8 9 14 17 18 19 17 14 16 14 16 24 31 34 34 28 28 31 21 22 29 36 40 41 43 43 42 39 38 37 35 33 31 30 28 27 26 24 22
5 9 10 9 9 10 12 13 12 11 11 10 9 11 13 17 23 28 32 34 34 34 32 31 29 32 36 39 40 42 36 33 33 32 33 30 28 27 27 27 26 25 24 24
1 8 10 9 8 10 11 10 7 10 15 20 18 11 17 20 24 30 34 35 37 35 33 31 29 31 35 37 38 36 31 30 32 32 33 31 29 27 27 29 29 28 28 27
8 2 6 12 12 9 8 8 8 12 19 22 17 6 16 18 21 26 30 33 34 33 31 30 30 32 35 37 37 37 36 35 35 36 37 37 34 31 30 31 31 32 33 33
6 5 4 12 13 11 10 8 10 14 15 19 21 15 21 25 24 26 29 33 36 38 37 36 36 38 40 41 42 42 42 42 42 42 42 42 41 39 38 37 36 36 37 38
11 6 8 12 11 12 12 10 11 14 12 11 17 23 31 29 25 28 34 38 40 42 44 44 44 44 45 47 48 49 50 50 50 50 50 49 49 48 47 47 46 44 43 42
6 6 5 8 11 15 18 17 16 15 14 15 17 30 33 29 29 35 39 39 41 44 48 50 50 51 51 52 53 54 56 56 56 57 57 57 57 56 55 54 54 54 53 50
6 7 7 8 11 11 15 17 18 18 17 19 19 30 32 35 36 39 42 43 45 49 51 53 54 55 56 56 57 58 59 60 61 61 61 61 61 62 62 62 61 61 60 58
10 11 10 10 17 13 12 20 22 23 22 22 22 31 34 36 37 40 44 47 51 53 54 55 56 57 58 59 59 60 61 62 63 64 64 64 63 63 64 65 66 66 65 63
11 12 12 12 18 20 19 20 22 24 25 26 27 34 37 39 41 43 46 49 53 56 58 61 63 63 64 64 65 65 66 67 67 67 67 68 68 68 68 68 69 71 70 68
13 14 14 13 13 15 18 20 22 24 27 30 32 38 44 43 44 47 51 55 58 61 63 64 65 65 67 68 69 70 71 73 74 74 74 74 75 75 75 74 74 75 75 72
17 16 16 15 14 15 18 21 23 27 30 33 36 40 49 50 52 54 56 59 62 65 68 70 72 74 76 77 77 77 77 77 77 77 77 78 79 80 80 81 81 81 79 74
19 18 17 17 14 18 22 23 26 31 35 39 42 44 50 53 55 58 61 64 68 71 74 77 79 80 80 78 76 72 67 63 59 57 56 57 59 62 66 72 78 81 82 81
20 20 19 17 15 17 24 26 31 35 39 44 47 48 50 54 58 61 64 68 72 75 76 76 73 69 63 57 52 47 42 39 37 35 34 34 35 37 39 43 49 55 61 67
22 20 20 20 21 23 27 30 35 39 42 46 48 51 54 56 59 62 68 73 76 74 69 62 55 50 46 43 40 39 37 37 36 35 35 36 36 35 34 32 30 31 32 37
26 24 23 24 24 30 34 35 39 43 46 50 52 56 58 61 65 69 73 74 70 61 54 49 47 45 44 43 42 43 43 43 44 43 43 43 43 42 40 37 35 32 29 28
26 26 26 28 31 34 38 41 43 46 48 54 56 58 61 64 69 72 73 69 59 51 48 48 49 50 49 48 48 48 48 48 48 46 46 46 46 46 43 41 39 37 34 30
25 26 28 30 33 39 41 44 45 47 49 52 55 59 64 70 74 75 69 59 51 49 50 52 53 54 54 53 53 53 52 52 50 48 48 47 46 45 42 40 37 36 34 32
26 29 31 34 37 40 43 45 48 51 54 57 62 65 69 73 74 70 61 54 51 51 53 56 57 57 57 56 55 55 55 54 53 51 49 48 46 44 41 39 37 37 36 34
28 30 33 37 39 43 45 48 51 54 57 61 66 69 73 76 73 63 54 51 52 54 56 57 58 58 57 56 55 54 53 53 52 51 49 47 45 42 41 40 39 39 39 37
31 31 34 38 41 43 47 49 52 54 58 63 68 72 75 74 65 55 52 52 54 56 58 59 58 56 54 53 53 52 51 50 49 47 45 44 42 40 39 39 37 37 37 38
28 32 37 42 45 45 47 50 53 55 60 65 69 74 74 67 56 53 54 56 57 59 59 60 58 56 53 52 50 49 47 46 44 42 40 38 38 37 36 36 35 34 35 35
32 36 40 44 46 48 49 51 54 57 62 66 70 74 68 58 54 55 56 57 59 60 60 59 58 56 53 50 47 44 41 39 37 34 32 31 31 32 32 31 31 31 33 33
Wind_Direction
333 322 66 275 256 249 231 208 212 222 230 246 254 250 255 268 264 262 266 268 273 276 275 274 268 264 273 276 280 280 285 291 296 299 300 295 288 287 287 286 285 287 288 286
307 279 235 279 293 228 259 250 242 240 245 252 261 268 264 261 273 273 271 270 270 271 271 270 263 264 271 270 274 280 285 290 294 297 296 292 287 286 286 282 280 279 278 278
301 312 310 311 295 277 270 262 244 243 250 256 267 282 289 276 273 281 277 268 261 265 266 252 247 265 270 275 276 282 286 288 290 292 293 291 290 289 288 284 281 278 276 276
263 276 295 303 288 276 277 275 268 265 273 274 272 277 278 266 259 269 276 278 272 276 278 251 262 278 282 286 288 290 287 283 285 290 294 293 290 289 287 284 280 273 267 271
308 304 301 301 299 300 292 282 283 286 286 267 250 265 260 245 254 272 283 290 296 298 291 297 299 292 290 292 291 292 287 279 280 286 293 297 298 297 293 287 282 278 274 276
137 349 358 346 336 323 309 306 310 311 290 274 263 219 245 261 274 282 288 292 295 297 301 304 300 294 293 294 292 297 297 289 284 288 292 293 295 294 291 288 284 282 281 280
186 215 339 331 333 326 330 338 335 319 318 325 334 290 263 288 291 289 292 296 300 302 305 307 302 296 294 294 292 292 295 292 288 287 288 288 287 286 283 282 283 284 284 283
2 65 344 309 319 338 350 358 345 318 311 320 322 293 280 290 290 294 298 301 303 305 305 305 302 296 293 292 290 289 289 288 286 284 284 283 282 280 279 278 278 278 279 281
339 337 293 302 327 342 343 336 314 307 313 308 297 289 291 282 281 293 298 302 303 302 301 300 297 294 291 289 287 286 286 286 285 284 283 281 280 278 277 276 275 273 274 276
303 307 303 313 322 322 328 330 328 327 316 303 303 302 301 303 305 303 301 301 300 297 296 295 294 292 290 287 285 283 282 281 281 280 279 279 278 278 276 275 275 275 275 275
305 317 332 316 290 288 304 325 323 318 312 300 300 295 293 296 297 300 298 295 294 294 294 293 292 291 289 287 285 282 280 279 278 277 276 274 274 274 274 274 274 275 276 276
312 321 326 310 288 277 305 323 324 319 315 312 306 291 297 296 298 299 298 295 294 294 294 293 292 291 290 288 286 283 280 279 278 276 274 273 271 271 272 272 272 272 272 273
318 319 318 314 318 331 327 316 308 305 305 306 302 294 295 296 298 296 295 295 295 296 295 294 294 293 291 289 286 283 281 278 276 274 273 272 270 269 269 269 269 269 269 269
323 320 319 314 310 306 302 302 303 302 300 300 297 297 299 300 302 300 300 301 302 301 300 298 297 295 292 289 286 284 281 278 275 273 271 270 269 268 267 267 267 267 267 267
330 325 321 320 319 305 299 303 307 303 303 303 304 305 304 307 306 305 305 305 304 302 300 299 297 295 293 291 288 286 283 281 278 275 272 270 268 267 266 264 264 264 264 264
333 329 324 321 322 309 307 313 311 307 307 307 308 309 308 308 308 309 309 308 306 305 304 302 300 297 295 293 291 290 289 288 287 285 283 279 274 271 268 265 264 263 263 262
343 338 334 331 331 318 311 316 311 312 313 313 315 314 311 310 311 312 312 311 310 310 308 304 302 300 300 299 298 297 296 295 294 293 292 290 287 283 278 272 268 265 263 261
350 343 340 342 339 322 325 323 319 320 320 318 318 316 316 316 315 317 317 316 316 314 311 310 310 309 307 304 302 300 297 294 291 289 287 286 286 287 286 282 277 271 266 260
348 345 343 344 338 324 331 329 326 327 326 324 323 322 322 320 320 322 321 319 317 315 315 314 312 310 307 304 302 299 296 294 291 288 286 285 284 283 280 276 273 270 267 263
340 339 341 339 335 329 335 332 334 332 329 328 326 323 321 320 321 323 322 320 318 316 314 313 311 309 307 304 301 298 296 293 291 288 286 284 283 282 278 273 269 265 263 262
334 337 339 339 337 332 337 334 332 330 328 326 324 324 324 326 326 326 324 322 319 315 313 312 310 308 306 303 299 296 294 292 290 287 284 283 282 279 276 270 265 259 256 255
338 338 340 340 339 335 333 332 332 331 330 330 329 329 328 329 328 327 326 325 322 318 314 312 310 308 305 302 298 294 292 290 288 285 282 281 280 277 272 266 261 255 252 251
339 339 340 339 336 333 332 333 333 332 332 331 331 331 332 332 331 330 330 328 325 321 318 316 313 310 307 303 300 296 294 291 288 285 282 279 277 273 269 265 259 254 250 249
333 337 336 335 335 334 332 332 332 332 332 333 334 335 336 334 334 335 334 332 328 324 321 318 316 313 310 306 302 299 296 293 290 286 282 278 274 270 267 264 259 253 249 246
328 331 335 336 335 333 330 331 332 334 334 336 338 339 339 338 339 339 337 334 330 327 325 323 320 318 314 311 306 301 297 295 292 288 283 277 273 269 265 260 255 251 246 241
330 333 335 334 333 332 332 333 334 335 336 339 341 342 342 343 344 343 340 337 334 332 331 329 326 323 319 315 312 306 302 300 297 292 286 279 274 270 265 259 252 245 238 234
Height
5871 5872 5871 5871 5872 5872 5874 5876 5877 5880 5879 5876 5875 5876 5877 5873 5870 5872 5873 5870 5866 5863 5858 5851 5844 5840 5844 5845 5843 5843 5842 5842 5842 5840 5838 5836 5835 5833 5831 5831 5830 5829 5828 5828
5873 5871 5869 5869 5870 5870 5872 5873 5873 5873 5871 5870 5869 5869 5871 5869 5864 5864 5864 5860 5855 5849 5843 5838 5830 5827 5836 5838 5837 5836 5836 5835 5835 5834 5832 5830 5828 5826 5825 5825 5824 5824 5824 5823
5872 5870 5868 5869 5869 5869 5868 5868 5867 5866 5866 5865 5865 5864 5863 5863 5860 5855 5851 5845 5838 5833 5828 5823 5824 5825 5831 5831 5830 5830 5830 5828 5828 5828 5826 5824 5821 5820 5820 5820 5820 5819 5819 5818
5871 5869 5868 5867 5867 5866 5865 5864 5863 5862 5862 5861 5863 5861 5860 5858 5853 5848 5840 5830 5821 5823 5816 5801 5813 5825 5827 5826 5825 5825 5821 5819 5821 5820 5819 5817 5815 5814 5813 5813 5813 5813 5813 5813
5869 5868 5866 5865 5864 5863 5862 5860 5859 5858 5857 5857 5856 5856 5856 5850 5846 5842 5837 5831 5825 5826 5820 5815 5820 5823 5822 5820 5818 5816 5811 5811 5812 5812 5812 5810 5808 5807 5806 5806 5806 5807 5807 5807
5867 5867 5865 5864 5863 5863 5860 5859 5857 5856 5854 5852 5848 5848 5848 5848 5845 5841 5836 5832 5829 5827 5822 5820 5819 5818 5816 5814 5812 5810 5806 5806 5805 5805 5804 5803 5802 5801 5800 5799 5799 5799 5800 5800
5861 5864 5866 5865 5863 5862 5859 5858 5856 5855 5849 5846 5843 5843 5844 5844 5842 5838 5834 5829 5826 5822 5819 5817 5815 5813 5811 5809 5806 5804 5802 5801 5799 5798 5796 5794 5794 5793 5792 5791 5792 5791 5791 5790
5858 5862 5865 5865 5863 5860 5858 5857 5857 5854 5852 5850 5843 5841 5839 5839 5837 5834 5831 5826 5821 5817 5814 5812 5809 5807 5804 5801 5798 5796 5794 5792 5790 5788 5786 5785 5784 5783 5782 5782 5783 5782 5781 5781
5863 5865 5866 5865 5862 5860 5858 5856 5855 5852 5850 5850 5845 5839 5837 5830 5830 5829 5826 5822 5817 5812 5807 5805 5802 5799 5795 5791 5787 5784 5782 5780 5777 5775 5774 5772 5771 5771 5770 5770 5769 5770 5771 5771
5866 5865 5864 5863 5862 5859 5857 5854 5853 5850 5848 5846 5845 5836 5832 5825 5824 5823 5820 5816 5812 5806 5800 5795 5790 5786 5782 5778 5774 5771 5767 5765 5762 5760 5759 5757 5756 5755 5755 5755 5755 5754 5756 5758
5865 5864 5863 5862 5859 5857 5856 5854 5851 5848 5846 5843 5840 5835 5829 5825 5821 5817 5812 5808 5803 5797 5790 5784 5778 5772 5767 5763 5759 5755 5751 5748 5745 5743 5741 5740 5739 5738 5737 5738 5739 5739 5739 5741
5864 5863 5861 5858 5854 5849 5851 5851 5848 5845 5842 5839 5836 5831 5825 5820 5815 5810 5803 5797 5791 5785 5779 5772 5765 5759 5753 5747 5742 5737 5733 5730 5727 5724 5722 5721 5720 5719 5719 5719 5720 5720 5722 5724
5862 5861 5859 5857 5854 5850 5849 5848 5845 5841 5837 5834 5830 5824 5817 5813 5807 5801 5794 5787 5780 5774 5766 5759 5752 5745 5738 5731 5725 5720 5715 5710 5707 5705 5703 5701 5700 5700 5699 5699 5700 5701 5702 5704
5860 5858 5857 5855 5852 5850 5848 5845 5841 5838 5833 5828 5824 5815 5807 5803 5798 5791 5784 5777 5769 5759 5750 5742 5735 5727 5719 5712 5705 5699 5693 5688 5684 5681 5680 5679 5677 5677 5677 5678 5679 5680 5682 5684
5858 5856 5853 5850 5848 5846 5843 5841 5838 5833 5827 5822 5816 5809 5798 5793 5786 5779 5772 5763 5753 5743 5733 5724 5715 5705 5695 5687 5679 5672 5666 5661 5657 5654 5652 5651 5651 5650 5651 5653 5654 5657 5660 5663
5855 5852 5849 5847 5844 5841 5838 5836 5832 5826 5820 5814 5808 5802 5791 5782 5774 5766 5757 5746 5735 5724 5713 5702 5690 5679 5668 5659 5650 5642 5637 5632 5628 5626 5624 5623 5622 5623 5623 5625 5627 5630 5635 5639
5852 5848 5846 5843 5841 5840 5834 5831 5825 5820 5813 5805 5798 5792 5782 5773 5763 5753 5742 5730 5717 5705 5691 5677 5664 5653 5643 5635 5628 5623 5619 5615 5612 5610 5608 5606 5604 5603 5603 5603 5604 5606 5609 5613
5850 5847 5843 5840 5838 5834 5833 5825 5819 5813 5805 5796 5789 5780 5771 5761 5750 5739 5725 5708 5694 5680 5666 5655 5645 5637 5630 5623 5617 5612 5608 5605 5602 5599 5597 5595 5593 5592 5591 5591 5591 5592 5593 5594
5848 5845 5841 5838 5834 5829 5823 5818 5811 5803 5795 5785 5777 5766 5756 5744 5733 5723 5706 5690 5675 5662 5651 5642 5634 5626 5619 5613 5607 5602 5597 5593 5589 5587 5584 5582 5580 5579 5579 5579 5580 5581 5582 5583
5847 5843 5839 5834 5829 5824 5819 5810 5803 5796 5787 5774 5765 5755 5744 5732 5720 5710 5693 5675 5660 5649 5639 5631 5623 5615 5608 5602 5595 5589 5584 5579 5575 5572 5569 5567 5565 5564 5564 5565 5567 5568 5569 5571
5845 5841 5837 5831 5825 5815 5812 5803 5797 5790 5782 5772 5760 5747 5733 5718 5703 5688 5674 5661 5648 5638 5629 5620 5611 5602 5594 5587 5580 5574 5567 5562 5558 5555 5552 5550 5549 5548 5548 5550 5552 5553 5556 5559
5841 5837 5832 5827 5820 5815 5806 5798 5790 5781 5770 5758 5747 5734 5720 5705 5689 5672 5658 5647 5637 5627 5617 5607 5596 5587 5578 5570 5562 5555 5549 5544 5540 5536 5534 5532 5531 5530 5531 5534 5537 5539 5542 5546
5838 5833 5827 5822 5818 5809 5799 5790 5782 5772 5761 5749 5737 5723 5707 5691 5675 5659 5647 5637 5627 5615 5604 5592 5580 5570 5560 5551 5542 5535 5529 5523 5519 5516 5515 5513 5513 5513 5514 5517 5520 5524 5528 5532
5833 5829 5824 5818 5812 5803 5793 5785 5776 5766 5754 5741 5726 5710 5694 5677 5662 5649 5639 5628 5616 5603 5590 5577 5565 5553 5543 5533 5524 5515 5509 5503 5499 5496 5495 5494 5494 5496 5497 5500 5503 5508 5513 5518
5831 5825 5818 5811 5804 5797 5790 5779 5769 5758 5745 5731 5716 5700 5683 5666 5653 5642 5631 5618 5605 5591 5577 5563 5549 5536 5526 5515 5506 5498 5491 5485 5481 5479 5477 5477 5478 5480 5482 5485 5488 5493 5498 5504
5824 5818 5813 5806 5798 5789 5781 5771 5760 5749 5737 5723 5708 5693 5676 5660 5648 5636 5623 5609 5594 5579 5565 5550 5535 5521 5509 5498 5489 5481 5475 5470 5466 5464 5463 5464 5464 5466 5468 5470 5474 5479 5486 5492